Weather in Krapivnaya

Russia / Kamchatka Krai     55°56′14″N   159°23′53″E
В апреле 2022 года жителям России запретили посещать сайт meteo.paraplan.net по решению Генеральной прокуратуры. Аудитория сайта уменьшилась в 10 раз. Владельцы сайта не видят смысла в поддержке погодного сервера в таких условиях. Сайт будет закрыт в октябре.
temp.,
°C
wind,
m/s
gust,
m/s
humid.,
%
clouds,
%
prec.,
mm/h
press.,
hPa
HPBL,
m
1 october, sat
sat100:00+3wnw238161 0.1 1001128
03:00+2w228568 0.0 100320
06:00+1wnw228150 0.0 100325
09:00+3wsw127642 0.0 1004113
12:00+7sw135628 0.0 10051054
15:00+9wnw344665 0.0 10051607
18:00+6wnw23585 0.0 100676
21:00+3nw337296 0.0 100940
2 october, sun
sun200:00+3nw227276 0.0 100927
03:00+3wnw1173100 0.0 100814
06:00+1wsw1183100 0.0 100920
09:00+3ssw1180100 0.1 1009146
12:00+5s2267100 0.1 1008682
15:00+7wsw1359100 0.1 1007998
18:00+5wnw476998 0.4 1008646
21:00+2wnw357496 0.0 1011103
3 october, mon
mon300:00+1wnw347867 0.0 101363
03:000wnw228137 0.0 101529
06:000w228313 0.0 101626
09:00+2wsw237215 0.0 1017215
12:00+5ssw2354100 0.0 10171026
15:00+6s3354100 0.0 1016859
18:00+4ssw1166100 0.0 101546
21:00+3s1172100 0.0 101539
4 october, tue
tue400:00+2sse2686100 0.3 1013473
03:00+2s2498100 2.3 1011295
06:00+2s1399100 2.6 1011314
09:00+2se0299100 0.8 1011316
12:00+2nnw1199100 0.8 1012178
15:00+4sw1188100 0.0 1010309
18:00+4n1195100 1.6 100944
21:00+4nne2296100 2.6 100874
5 october, wed
wed500:00+4ne2397100 4.2 1007149
03:00+4nne3595100 1.1 1003205
06:00+4nne3594100 2.3 1000210
09:00+3ne2595100 1.3 999282
12:00+4nne1392100 1.8 995176
15:00+5nne1289100 0.4 99195
18:00+5nnw1191100 0.8 98760
21:00+4s2599100 2.7 988365